Location: Fernhill
(41.0167°S, 175.6333°E)
Time: 23:50:21
(UTC+00:00)

Cosmos 2058 - Pass Details

Date: 08 November 2025
Orbit: 529 x 541 km, 82.5° (Epoch: 04 December)

Event Time Altitude Azimuth Distance (km) Brightness Sun altitude
Exits shadow 08:11:27 10° 15° (NNE) 1,845 5.0 -11.6°
Reaches altitude 10° 08:11:31 10° 15° (NNE) 1,819 5.0 -11.6°
Maximum altitude 08:15:20 44° 87° (E) 777 3.2 -12.2°
Drops below altitude 10° 08:19:12 10° 159° (SSE) 1,847 5.7 -12.8°
Sets 08:21:27 0° 165° (SSE) 2,748 6.7 -13.1°
